Wind_Speed
13 12 11 11 10 10 11 11 11 12 12 13 14 14 15 16 17 17 17 17 17 17 17 18 19 18 18 17 17 16 16 16 16 17 17 17 17 17 18 18 18 18 19
13 12 12 11 10 11 11 11 12 12 13 14 15 15 16 17 17 17 17 17 17 17 18 18 19 19 19 19 18 18 18 17 17 18 18 18 18 18 18 18 18 18 19
14 13 12 12 11 11 12 13 13 14 14 15 15 16 16 17 17 17 17 17 17 17 18 18 18 19 19 19 19 19 19 19 18 18 18 19 19 19 19 19 19 19 19
15 15 14 14 13 12 13 13 14 14 15 15 16 16 16 16 16 16 16 17 17 17 18 18 18 18 18 19 19 19 19 19 19 19 18 19 19 19 19 19 19 19 19
17 16 16 15 14 14 13 13 14 15 15 16 16 16 16 16 16 16 17 18 18 18 18 18 18 18 18 18 18 19 19 19 19 19 19 19 19 20 20 20 20 20 20
18 17 17 16 16 15 14 14 14 15 16 17 17 18 18 18 18 18 18 19 19 19 19 19 19 18 18 18 18 19 19 19 19 19 19 19 20 20 20 21 21 21 21
19 19 19 18 17 17 16 15 15 16 17 18 19 19 19 19 19 19 19 20 19 19 19 19 19 19 18 19 19 19 19 19 19 19 19 19 20 20 20 21 21 21 22
21 21 21 20 19 19 18 18 18 18 18 19 20 20 20 20 20 20 21 20 20 20 19 19 19 19 19 20 20 20 20 20 19 20 20 20 20 20 21 21 22 22 23
23 23 23 22 21 21 21 20 20 20 20 21 21 21 21 21 21 21 21 21 21 20 20 19 19 19 20 20 20 20 20 21 20 20 21 21 21 21 21 21 22 22 23
25 25 24 23 23 23 23 23 23 22 22 22 22 22 22 22 22 22 22 22 21 21 20 20 20 20 21 21 21 21 21 21 21 21 21 21 21 22 22 22 22 23 23
27 26 26 25 24 24 24 25 25 24 24 23 23 23 23 23 23 23 22 22 22 22 21 21 21 21 21 21 21 22 22 22 21 21 22 22 22 22 22 22 23 23 23
28 27 26 26 26 26 26 26 26 25 25 25 25 24 24 24 24 24 23 23 23 23 22 22 22 22 22 22 22 22 22 22 22 21 22 22 22 22 22 22 22 22 22
29 28 28 28 27 27 27 27 26 26 26 26 26 25 25 25 25 25 25 24 24 24 24 24 24 24 24 24 24 24 24 24 23 22 23 23 22 22 22 22 22 22 22
30 29 29 29 29 28 28 27 27 26 26 26 26 26 26 26 26 26 26 26 25 25 25 26 26 26 26 26 25 25 25 25 24 23 24 24 24 24 23 23 22 22 22
31 30 30 29 29 29 28 28 28 27 27 27 27 27 27 27 27 27 27 27 27 27 28 28 29 28 28 28 28 28 27 27 26 24 25 25 25 25 24 24 24 23 22
31 31 30 30 30 29 29 28 28 28 28 28 28 29 29 29 29 29 29 29 29 30 30 31 31 31 30 30 31 30 30 29 28 26 26 26 26 25 25 25 25 25 24
32 31 31 30 30 30 30 30 30 30 30 29 29 30 31 31 32 32 32 32 32 33 33 33 34 34 33 33 34 33 33 32 31 29 27 27 28 27 27 26 27 26 26
32 32 31 31 31 30 30 31 31 31 31 31 31 32 33 34 35 35 35 35 36 37 37 37 37 37 37 37 37 37 36 35 34 33 31 29 29 29 29 28 28 28 27
33 33 33 32 32 32 32 32 32 32 33 33 34 35 36 37 37 38 38 38 39 39 40 40 40 41 41 40 40 40 39 38 37 36 35 33 31 31 31 31 30 30 30
34 34 34 33 33 33 33 33 33 34 35 36 37 38 39 40 40 41 41 42 42 43 43 43 44 44 44 44 44 44 43 42 41 40 38 37 35 34 33 33 33 32 32
35 34 35 35 34 34 35 36 36 36 36 38 39 40 42 42 43 44 44 45 45 46 46 47 47 48 48 49 49 48 47 47 45 43 42 41 39 38 37 36 35 35 34
35 35 35 35 35 36 37 37 38 39 39 39 41 42 43 45 46 47 47 47 48 49 49 50 50 51 52 52 53 53 52 51 49 48 47 45 44 42 40 39 38 38 37
36 36 36 36 37 37 38 39 40 40 41 41 42 43 44 46 47 48 49 50 51 52 52 53 54 54 55 55 56 57 56 54 53 52 50 49 48 46 44 44 43 42 41
36 36 36 37 38 38 39 40 41 41 42 42 43 44 45 46 48 49 51 52 53 54 55 56 57 58 58 59 59 59 58 58 58 55 53 52 51 50 49 48 47 46 45
35 36 37 37 38 39 39 40 41 41 42 42 43 44 45 46 48 49 51 52 54 55 57 58 60 61 62 62 62 61 61 61 60 59 57 55 54 53 52 51 50 49 49
36 37 37 38 38 39 39 40 40 41 41 42 43 44 45 46 47 49 50 52 53 56 58 60 62 63 64 64 64 64 64 63 62 61 60 58 57 56 55 54 53 52 51
Wind_Direction
243 248 253 260 267 274 277 278 279 281 284 286 289 290 292 294 295 296 298 298 299 299 299 301 302 302 301 300 299 299 299 298 298 298 299 300 302 303 304 304 305 305 306
243 247 253 258 265 273 279 281 283 284 285 287 288 289 290 292 294 296 298 300 300 301 301 302 302 301 299 298 298 297 297 297 298 298 299 300 301 302 303 303 303 303 303
245 249 254 258 263 269 276 281 283 285 286 288 289 290 292 294 295 297 298 300 301 302 302 301 301 300 299 298 297 297 297 297 296 297 298 299 299 300 300 300 300 299 299
247 251 255 258 261 264 270 276 280 283 285 288 289 291 293 295 297 299 301 302 302 302 301 300 300 299 299 299 297 296 297 297 297 297 297 297 298 299 299 299 298 297 297
247 251 254 257 260 261 263 269 275 280 284 287 289 291 293 295 298 300 301 302 302 302 301 300 299 299 298 298 297 296 296 295 295 296 296 297 297 298 298 298 297 297 296
247 251 254 256 258 260 261 264 271 278 284 287 290 291 293 295 297 299 300 301 302 303 303 302 301 300 298 298 297 296 295 295 294 294 295 296 297 298 299 299 298 297 296
246 251 253 256 258 261 263 266 271 278 283 287 290 293 295 297 298 299 300 301 303 304 304 304 303 302 300 300 299 298 296 295 295 295 295 296 297 299 300 300 299 297 296
246 250 253 256 260 264 267 271 275 280 284 287 291 293 296 297 298 299 301 302 302 304 304 305 304 303 301 301 300 299 298 297 297 297 297 297 298 298 299 299 297 296 295
244 248 252 257 262 267 271 275 279 282 286 289 291 293 295 297 298 299 300 301 301 302 303 303 304 303 302 301 300 299 299 298 298 299 299 298 298 298 297 296 296 296 296
243 248 253 258 264 269 275 279 282 285 287 289 291 292 294 295 297 298 299 299 299 300 300 301 301 301 301 300 299 299 298 298 298 298 298 298 297 297 296 296 296 296 296
244 248 253 259 265 271 276 280 283 286 288 289 291 291 293 294 295 295 296 296 296 297 297 297 298 298 298 298 298 298 297 297 297 296 296 296 296 296 295 295 296 297 298
245 249 255 261 266 271 276 279 282 285 288 290 291 292 293 294 294 294 293 293 294 294 294 295 295 295 296 296 296 296 296 296 296 295 294 294 294 294 293 294 295 296 298
247 251 256 262 267 271 274 277 281 284 287 289 291 292 293 294 293 293 293 292 292 292 292 292 292 293 293 294 294 294 293 293 293 293 292 293 292 292 293 293 293 295 297
248 253 258 262 266 269 273 276 279 282 285 287 289 292 293 294 294 293 293 292 292 291 290 290 290 291 291 292 292 292 291 291 290 289 289 290 290 291 291 291 292 294 295
249 254 258 262 265 269 272 275 278 280 282 285 288 290 292 293 293 293 293 293 292 291 290 289 289 290 290 291 290 290 289 289 288 286 286 287 288 288 289 290 290 292 293
250 255 258 262 266 269 272 274 276 279 281 283 286 289 290 291 291 291 291 291 291 290 289 289 289 290 290 290 289 289 288 287 286 285 284 285 285 285 286 287 288 288 289
251 255 258 262 266 269 271 274 276 279 281 284 285 287 288 289 289 289 288 288 288 287 287 288 289 288 288 288 287 287 287 286 285 283 282 282 283 283 284 284 285 286 287
250 254 258 261 265 268 271 274 276 279 282 284 285 286 287 287 288 288 287 287 286 286 286 287 287 286 286 285 285 285 285 285 284 282 281 279 280 281 281 282 283 283 284
250 254 258 261 264 267 269 272 275 279 281 283 284 286 286 286 287 288 288 287 287 286 286 285 285 284 284 284 283 283 283 282 281 280 279 278 277 277 278 279 280 280 281
251 254 257 260 263 266 269 271 274 277 280 282 284 285 286 286 287 287 287 287 286 286 285 283 283 282 282 281 281 281 280 279 279 279 278 276 275 274 274 276 277 277 278
251 254 257 260 263 265 269 272 274 276 278 281 283 284 285 285 285 285 285 285 285 285 284 283 282 281 280 279 279 279 277 277 277 277 277 275 273 273 273 273 273 274 275
252 254 257 260 263 266 269 272 275 277 278 279 281 283 283 284 284 285 285 285 284 284 283 283 281 280 279 279 278 277 277 276 277 276 274 274 273 273 273 272 271 271 272
253 255 257 260 263 266 269 272 274 277 279 280 281 280 281 281 282 283 284 283 283 283 283 282 281 280 279 277 277 277 276 276 275 273 274 274 273 272 273 273 271 269 270
254 256 259 261 263 266 269 271 274 276 278 279 280 280 280 280 281 282 282 283 283 283 283 282 281 280 278 277 276 275 275 274 274 273 272 272 273 272 272 273 272 271 271
256 259 262 264 266 268 270 272 274 276 277 278 279 279 280 280 281 281 282 282 282 282 282 282 281 280 278 277 275 274 273 273 273 273 272 271 271 271 272 273 274 274 274
259 262 264 266 268 269 271 273 274 276 277 278 279 280 281 281 282 282 282 283 283 283 282 281 280 278 277 276 274 273 272 271 271 271 271 270 270 270 271 272 273 274 275
Height
5882 5882 5884 5885 5886 5886 5887 5888 5889 5889 5890 5890 5890 5890 5891 5891 5891 5891 5891 5891 5891 5891 5890 5890 5890 5889 5889 5889 5888 5888 5887 5887 5886 5886 5885 5884 5884 5883 5883 5882 5881 5880 5880
5880 5881 5882 5883 5884 5885 5885 5886 5887 5887 5888 5888 5888 5889 5889 5889 5889 5889 5889 5889 5889 5889 5889 5888 5888 5887 5887 5886 5886 5885 5885 5884 5884 5883 5883 5882 5882 5881 5880 5879 5879 5878 5877
5878 5879 5881 5882 5883 5883 5884 5884 5885 5886 5886 5886 5886 5887 5887 5887 5887 5887 5887 5887 5887 5887 5887 5886 5886 5885 5885 5884 5884 5883 5882 5882 5881 5881 5880 5880 5879 5878 5877 5877 5876 5875 5874
5876 5877 5879 5880 5881 5882 5882 5883 5883 5884 5884 5884 5884 5885 5885 5885 5885 5885 5885 5885 5885 5885 5884 5884 5884 5883 5882 5882 5881 5881 5880 5879 5879 5878 5878 5877 5876 5875 5874 5874 5873 5872 5871
5874 5875 5876 5878 5879 5880 5881 5881 5881 5882 5882 5882 5882 5883 5883 5883 5883 5882 5882 5882 5882 5882 5882 5881 5881 5880 5880 5879 5879 5878 5877 5877 5876 5875 5875 5874 5873 5872 5871 5871 5870 5869 5868
5871 5873 5874 5875 5876 5877 5878 5879 5879 5880 5880 5880 5880 5880 5880 5880 5880 5880 5880 5880 5879 5879 5879 5878 5878 5877 5877 5876 5876 5875 5874 5874 5873 5872 5872 5871 5870 5869 5868 5868 5867 5866 5866
5869 5870 5871 5872 5873 5874 5875 5876 5877 5878 5878 5878 5878 5878 5878 5878 5878 5877 5877 5877 5876 5876 5876 5875 5875 5874 5874 5873 5872 5872 5871 5870 5870 5869 5868 5867 5867 5866 5865 5864 5864 5863 5862
5866 5866 5868 5869 5870 5871 5872 5874 5874 5875 5875 5875 5875 5875 5875 5875 5875 5874 5874 5874 5873 5873 5872 5872 5872 5871 5870 5870 5869 5868 5867 5867 5866 5865 5864 5864 5863 5862 5861 5861 5860 5859 5859
5862 5863 5864 5866 5867 5868 5869 5870 5871 5872 5873 5873 5873 5872 5872 5872 5872 5871 5871 5871 5870 5870 5869 5869 5868 5868 5867 5866 5865 5864 5864 5863 5862 5862 5860 5860 5859 5858 5858 5857 5856 5856 5855
5858 5860 5861 5863 5864 5865 5866 5867 5868 5868 5869 5869 5869 5869 5869 5869 5869 5868 5868 5867 5867 5866 5866 5865 5865 5864 5863 5863 5862 5861 5860 5859 5859 5858 5857 5856 5855 5854 5853 5853 5852 5851 5850
5854 5856 5858 5859 5860 5861 5863 5863 5864 5865 5865 5865 5866 5866 5866 5866 5866 5865 5865 5864 5863 5863 5862 5862 5861 5860 5860 5859 5858 5857 5856 5855 5855 5854 5853 5852 5851 5850 5849 5848 5848 5847 5846
5850 5853 5854 5856 5857 5858 5859 5859 5860 5861 5861 5861 5862 5862 5862 5862 5862 5861 5861 5860 5860 5859 5858 5858 5857 5856 5856 5855 5854 5853 5852 5851 5850 5850 5848 5848 5847 5846 5845 5844 5843 5842 5841
5846 5848 5850 5851 5852 5854 5855 5856 5856 5857 5857 5857 5858 5858 5858 5858 5858 5857 5857 5856 5856 5855 5854 5854 5853 5852 5851 5850 5849 5848 5847 5847 5846 5845 5843 5843 5842 5841 5840 5840 5839 5837 5836
5842 5844 5845 5847 5848 5849 5850 5851 5852 5853 5853 5853 5853 5853 5853 5853 5853 5853 5852 5852 5851 5851 5850 5849 5848 5847 5846 5846 5845 5844 5843 5842 5841 5841 5839 5838 5837 5836 5835 5834 5834 5833 5832
5837 5839 5840 5842 5843 5844 5845 5846 5847 5848 5848 5848 5848 5848 5848 5848 5848 5847 5847 5847 5846 5845 5845 5844 5843 5842 5841 5840 5839 5838 5838 5837 5836 5836 5834 5833 5832 5831 5830 5829 5829 5828 5827
5832 5834 5835 5837 5838 5839 5840 5841 5842 5842 5843 5843 5843 5843 5842 5842 5842 5842 5841 5841 5840 5839 5839 5838 5837 5837 5836 5835 5833 5832 5832 5831 5830 5830 5829 5828 5827 5826 5825 5824 5823 5822 5821
5827 5828 5830 5832 5833 5834 5835 5835 5836 5836 5837 5837 5837 5837 5837 5836 5836 5835 5835 5834 5834 5833 5832 5831 5831 5830 5829 5828 5827 5826 5825 5824 5824 5824 5823 5822 5821 5820 5819 5818 5817 5817 5816
5821 5823 5825 5826 5828 5829 5829 5830 5830 5831 5831 5831 5831 5831 5830 5830 5829 5828 5828 5827 5826 5825 5825 5824 5823 5822 5821 5821 5820 5819 5818 5817 5816 5816 5816 5816 5815 5814 5813 5812 5811 5810 5809
5816 5817 5819 5821 5822 5823 5823 5824 5824 5825 5825 5824 5824 5824 5823 5823 5822 5821 5820 5820 5818 5817 5817 5816 5815 5813 5813 5812 5811 5811 5810 5809 5808 5808 5808 5808 5808 5807 5806 5805 5804 5803 5803
5810 5811 5813 5814 5816 5816 5817 5817 5818 5818 5818 5817 5817 5816 5816 5815 5814 5813 5812 5811 5810 5809 5808 5807 5805 5804 5803 5802 5801 5801 5801 5800 5799 5799 5799 5799 5799 5798 5798 5797 5796 5795 5794
5803 5805 5806 5808 5809 5810 5810 5810 5811 5811 5811 5811 5810 5809 5807 5806 5805 5804 5803 5802 5800 5799 5798 5797 5795 5794 5793 5791 5790 5790 5790 5789 5789 5789 5789 5788 5788 5788 5788 5788 5787 5786 5786
5797 5798 5800 5801 5802 5802 5803 5803 5803 5803 5804 5803 5802 5801 5799 5797 5795 5794 5793 5792 5790 5788 5787 5786 5784 5783 5782 5780 5779 5777 5777 5778 5779 5778 5777 5777 5777 5777 5777 5778 5777 5777 5776
5790 5791 5792 5793 5794 5795 5795 5795 5795 5795 5795 5794 5793 5792 5790 5788 5786 5784 5782 5781 5779 5777 5775 5774 5772 5770 5769 5768 5766 5765 5765 5765 5765 5765 5766 5766 5765 5766 5766 5766 5766 5766 5766
5782 5783 5784 5786 5786 5787 5787 5787 5787 5787 5786 5785 5783 5782 5781 5779 5776 5774 5772 5770 5767 5765 5763 5761 5759 5757 5755 5754 5753 5752 5751 5750 5750 5751 5753 5753 5753 5753 5754 5753 5753 5754 5754
5773 5775 5776 5777 5778 5779 5779 5779 5778 5777 5777 5775 5774 5772 5771 5769 5766 5764 5762 5759 5756 5754 5751 5748 5745 5743 5741 5739 5738 5737 5736 5735 5735 5735 5737 5739 5739 5740 5740 5740 5740 5741 5740
5765 5766 5767 5768 5769 5769 5769 5769 5769 5768 5767 5766 5764 5762 5760 5758 5756 5753 5751 5748 5745 5742 5738 5735 5731 5728 5726 5723 5722 5721 5720 5720 5721 5720 5721 5722 5724 5725 5725 5726 5727 5727 5726